Regional Weather Roundup
Issued by NWS

Home | Current Version | Previous Version | Text Only | Print | Product List | Glossary On
Versions: 1 2 3 4 5 6 7 8 9 10 11 12 13 14 15 16 17 18 19 20 21 22 23 24 25 26 27 28
000
ASUS45 KPSR 301710
RWRAZ

ARIZONA HOURLY REGIONAL WEATHER ROUNDUP
NATIONAL WEATHER SERVICE PHOENIX AZ
1000 AM MST TUE AUG 30 2016

NOTE: FAIR INDICATES FEW OR NO CLOUDS BELOW 12,000 FEET WITH NO
SIGNIFICANT WEATHER AND/OR OBSTRUCTIONS TO VISIBILITY.

AZZ001>003-036-301800-
NORTHWEST ARIZONA

CITY           SKY/WX    TMP DP  RH WIND       PRES   REMARKS
BULLHEAD CITY  SUNNY     95  46  18 CALM      29.87S
KINGMAN        SUNNY     89  45  21 E17       30.09R
$$

AZZ004>008-015-016-018-301800-
NORTH CENTRAL ARIZONA

CITY           SKY/WX    TMP DP  RH WIND       PRES   REMARKS
GRAND CANYON   SUNNY     77  41  27 SW3       30.35S
PRESCOTT       SUNNY     78  53  41 CALM      30.23S
FLAGSTAFF      SUNNY     72  45  37 SW6       30.38R
PAYSON         SUNNY     79  52  38 VRB6      30.28S
PAGE           SUNNY     80  41  24 VRB3      30.20S
$$

AZZ009>014-017-301800-
NORTHEAST ARIZONA

CITY           SKY/WX    TMP DP  RH WIND       PRES   REMARKS
WINSLOW        PTSUNNY   77  47  34 CALM      30.25S
SAINT JOHNS    SUNNY     77  48  35 NE6       30.30R
WINDOW ROCK    PTSUNNY   71  48  43 E6        30.39R
SHOW LOW       SUNNY     72  48  43 SW9       30.34S
$$

AZZ023-301800-
GREATER PHOENIX AREA

CITY           SKY/WX    TMP DP  RH WIND       PRES   REMARKS
PHOENIX        MOSUNNY   97  55  24 E13G22    29.90S
BUCKEYE        SUNNY     97  50  20 E18       29.91R
GLENDALE       MOSUNNY   99  55  23 NE12      29.93R
LUKE AFB       SUNNY     97  55  23 E12       29.90S
DEER VALLEY    SUNNY     96  53  23 E6        29.93S
SCOTTSDALE     SUNNY     96  54  24 SE7       29.95S
MESA-FALCON    SUNNY    N/A N/A N/A SE12      29.91S
MESA-GATEWAY   MOSUNNY   97  55  24 SE16G23   29.94R
CHANDLER       MOSUNNY   95  57  28 E17G23    29.93R
$$

AZZ027-028-301800-
SOUTHWEST MARICOPA COUNTY AND PINAL COUNTY

CITY           SKY/WX    TMP DP  RH WIND       PRES   REMARKS
CASA GRANDE    SUNNY     97  54  23 E7        29.96S
GILA BEND      SUNNY    100  50  18 NE13      29.85S
$$

AZZ503-504-507>509-301800-
SOUTHEAST ARIZONA

CITY           SKY/WX    TMP DP  RH WIND       PRES   REMARKS
TUCSON         SUNNY     91  55  29 E17       30.05R
DAVIS-MONTHAN  SUNNY     90  55  30 SE17      30.03S
RYAN FIELD     SUNNY     90  57  33 E17G24    30.02S
NOGALES        SUNNY     87  55  33 E12       30.11S
SIERRA VISTA   SUNNY     81  54  38 E10       30.20S
DOUGLAS        SUNNY     82  56  40 E20G26    30.17S
SAFFORD        SUNNY     84  57  39 SE9G18    30.13S
$$

AZZ020-021-025-026-031-301800-
SOUTHWEST ARIZONA

CITY           SKY/WX    TMP DP  RH WIND       PRES   REMARKS
YUMA           MOSUNNY   99  50  19 CALM      29.79S
$$

CAZ031-033-041-043-047-048-061-301800-
SOUTHERN CALIFORNIA

CITY           SKY/WX    TMP DP  RH WIND       PRES   REMARKS
DOWNTOWN L.A.  SUNNY     75  65  70 CALM      29.87F HAZE
L.A. AIRPORT   MOSUNNY   75  63  66 S3        29.88F HAZE
SAN DIEGO      PTSUNNY   75  65  70 W5        29.88S
BURBANK        SUNNY     77  61  57 S3        29.89S
ONTARIO        MOSUNNY   81  57  43 CALM      29.89S
RIVERSIDE      SUNNY     81  59  47 W5        29.89S
PALM SPRINGS   SUNNY    102  44  14 CALM      29.81S
EL CENTRO NAS  MOSUNNY  102  42  13 NE3       29.77S
IMPERIAL       SUNNY    102  50  17 CALM      29.76R
BLYTHE         SUNNY     98  47  17 E5        29.82R
NEEDLES        SUNNY     98  49  18 VRB3      29.88R
$$

NVZ020-UTZ003-301800-
SOUTHERN NEVADA-UTAH

CITY           SKY/WX    TMP DP  RH WIND       PRES   REMARKS
LAS VEGAS      MOSUNNY   93  32  11 E5        29.97R
SALT LAKE CITY MOSUNNY   87  36  16 SE9       30.14S
$$

NMZ009-TXZ055-301800-
NEW MEXICO-WEST TEXAS

CITY           SKY/WX    TMP DP  RH WIND       PRES   REMARKS
ALBUQUERQUE    MOSUNNY   74  49  41 E12G21    30.35S
EL PASO        LGT RAIN  68  65  90 E8        30.23R
$$


........................KEY........................
SKY/WX - SKY CONDITION/WEATHER
TMP    - TEMPERATURE IN FAHRENHEIT
DP     - DEW POINT IN FAHRENHEIT
RH     - RELATIVE HUMIDITY IN PERCENT
WIND   - DIRECTION AND SPEED IN MILES PER HOUR (MPH)
VRB    - VARIABLE WIND DIRECTION
PRES   - MEAN SEA LEVEL PRESSURE IN INCHES OF MERCURY
         F - FALLING PRESSURE   R - RISING PRESSURE
         S - STEADY PRESSURE
VSB    - VISIBILITY IN MILES
HX     - HEAT INDEX IN FAHRENHEIT
WCI    - WIND CHILL INDEX IN FAHRENHEIT
TC     - TEMPERATURE IN CELSIUS WHICH IS ALSO KNOWN AS
         TEMPERATURE IN CENTIGRADE
AFB    - AIR FORCE BASE
         LUKE AFB IS LUKE AIR FORCE BASE
         DAVIS-MONTHAN IS DAVIS-MONTHAN AIR FORCE BASE
NAS    - NAVAL AIR STATION
         EL CENTRO NAS IS EL CENTRO NAVAL AIR STATION
N/A    - NOT AVAILABLE





USA.gov is the U.S. government's official web portal to all federal, state and local government web resources and services.